Cliffside Park, New Jersey, United States (07010)
Lat: 40.82N, Lon: 73.99W
Wx Zone: NJZ104
Local Info
Past Weather Observations for Today

NOTE: This archive is for the closest National Weather Service station to Cliffside Park. Information may differ from the station used for current weather conditions.

Click here for Long-term Archive

Time Weather Temperature Dewpoint Humidity Pressure Winds Precip Visibility
20:51
Clear
70°F / 21°C 63°F / 17°C 78% 30.12 in
(1020 mb)
Variable 6.9 mph
(Variable 11 kph)
- 9SM
19:51
Clear
68°F / 20°C 61°F / 16°C 78% 30.15 in
(1021 mb)
S 4.6 mph
(S 7 kph)
- 9SM
18:51
Clear
70°F / 21°C 61°F / 16°C 73% 30.15 in
(1021 mb)
Variable 3.5 mph
(Variable 6 kph)
- 10SM
17:51
Clear
70°F / 21°C 57°F / 14°C 64% 30.15 in
(1021 mb)
Variable 3.5 mph
(Variable 6 kph)
- 10SM
16:51
Clear
72°F / 22°C 54°F / 12°C 53% 30.15 in
(1021 mb)
Calm - 10SM
15:51
Partly Cloudy
72°F / 22°C 57°F / 14°C 61% 30.18 in
(1022 mb)
SSE 9.2 mph
(SSE 15 kph)
- 10SM
14:51
Mostly Cloudy
72°F / 22°C 57°F / 14°C 61% 30.21 in
(1023 mb)
Variable 5.8 mph
(Variable 9 kph)
- 10SM
14:41
Mostly Cloudy
72°F / 22°C 57°F / 14°C 61% 30.21 in
(1023 mb)
Variable 4.6 mph
(Variable 7 kph)
- 10SM
14:24
Mostly Cloudy
72°F / 22°C 57°F / 14°C 61% 30.21 in
(1023 mb)
S 5.8 mph
(S 9 kph)
- 10SM
13:51
Partly Cloudy
72°F / 22°C 57°F / 14°C 61% 30.21 in
(1023 mb)
Calm - 10SM
12:51
Partly Cloudy
73°F / 23°C 57°F / 14°C 57% 30.24 in
(1024 mb)
Variable 6.9 mph
(Variable 11 kph)
- 10SM
11:51
Mostly Cloudy
72°F / 22°C 57°F / 14°C 61% 30.27 in
(1025 mb)
Variable 6.9 mph
(Variable 11 kph)
- 10SM
10:51
Mostly Cloudy
72°F / 22°C 55°F / 13°C 57% 30.27 in
(1025 mb)
Variable 5.8 mph
(Variable 9 kph)
- 10SM
09:51
Partly Cloudy
70°F / 21°C 55°F / 13°C 60% 30.3 in
(1026 mb)
Calm - 10SM
08:58
Mostly Cloudy
68°F / 20°C 55°F / 13°C 64% 30.3 in
(1026 mb)
Variable 4.6 mph
(Variable 7 kph)
- 10SM
08:51
Mostly Cloudy
66°F / 19°C 55°F / 13°C 68% 30.3 in
(1026 mb)
Variable 3.5 mph
(Variable 6 kph)
- 10SM
08:29
Mostly Cloudy
66°F / 19°C 55°F / 13°C 68% 30.3 in
(1026 mb)
Variable 4.6 mph
(Variable 7 kph)
- 9SM
07:51
Partly Cloudy
64°F / 18°C 54°F / 12°C 68% 30.33 in
(1027 mb)
Variable 3.5 mph
(Variable 6 kph)
- 9SM
06:51
Overcast
63°F / 17°C 54°F / 12°C 73% 30.33 in
(1027 mb)
Calm - 9SM
05:51
Partly Cloudy
61°F / 16°C 52°F / 11°C 72% 30.33 in
(1027 mb)
Calm - 10SM
05:29
Overcast
59°F / 15°C 52°F / 11°C 77% 30.33 in
(1027 mb)
SE 4.6 mph
(SE 7 kph)
- 10SM
05:15
Mostly Cloudy
59°F / 15°C 52°F / 11°C 77% 30.33 in
(1027 mb)
Calm - 10SM
04:51
Partly Cloudy
59°F / 15°C 52°F / 11°C 77% 30.33 in
(1027 mb)
Calm - 10SM
03:51
Partly Cloudy
57°F / 14°C 52°F / 11°C 82% 30.36 in
(1028 mb)
Calm - 10SM
02:51
Mostly Cloudy
57°F / 14°C 50°F / 10°C 77% 30.33 in
(1027 mb)
Calm - 10SM
01:51
Partly Cloudy
59°F / 15°C 48°F / 9°C 68% 30.36 in
(1028 mb)
Calm - 10SM
00:51
Clear
59°F / 15°C 48°F / 9°C 68% 30.36 in
(1028 mb)
Variable 3.5 mph
(Variable 6 kph)
- 10SM
Time Weather Temperature Dewpoint Humidity Pressure Winds Precip Visibility


Weather for websites

WeatherForYou.com, LLC is not responsible for any damages or problems caused by this service. Current weather conditions are obtained from the closest station including government and personal stations which may have varying degrees of accuracy. Weather forecasts are derived from the NOAA NDFD. Like all things, this site belongs to Jesus Christ... He just trusts me to maintain it. If you have any questions or comments email webmaster@weatherforyou.com

Copyright © 2014, WeatherForYou.com LLC. All rights reserved.